Regional Weather Roundup
Issued by NWS

Home | Current Version | Previous Version | Text Only | Print | Product List | Glossary Off
Versions: 1 2 3 4 5 6 7 8 9 10 11 12 13 14 15 16 17 18 19 20 21 22 23 24 25 26 27 28 29 30 31 32 33 34 35 36 37 38 39 40 41 42 43 44 45 46 47 48 49 50

000
ASUS43 KFSD 300310
RWRSD

WEATHER ROUNDUP FOR SOUTH DAKOTA
NATIONAL WEATHER SERVICE SIOUX FALLS SD
1000 PM CDT MON AUG 29 2016

NOTE: "FAIR" INDICATES FEW OR NO CLOUDS BELOW 12,000 FEET WITH NO
SIGNIFICANT WEATHER AND/OR OBSTRUCTIONS TO VISIBILITY.


SDZ001>005-009-010-012>017-300400-
NORTHWEST AND NORTH CENTRAL SOUTH DAKOTA

CITY           SKY/WX    TMP DP  RH WIND       PRES   REMARKS
BUFFALO          N/A     67  47  48 E13       30.19R
FAITH            N/A     67  51  56 E12       30.24R
MOBRIDGE       CLOUDY    72  52  49 NE10      30.20R
$$

SDZ012>016-024>037-041>051-057-063-072>074-300400-
SOUTHWEST AND SOUTH CENTRAL SOUTH DAKOTA

CITY           SKY/WX    TMP DP  RH WIND       PRES   REMARKS
RAPID CTY ARPT PTCLDY    69  60  73 E10       30.25R
PIERRE         PTCLDY    75  66  73 NE12      30.15R
CUSTER         CLOUDY    62  51  67 NE5       30.39R
ELLSWORTH AFB  PTCLDY    73  60  64 E3        30.25R
PHILIP         CLOUDY    75  67  76 NE12      30.18R
PINE RIDGE     MOCLDY    71  61  70 CALM      30.24R
WINNER         FAIR      75  63  66 S6        30.16R
$$

SDZ004>011-016>023-039-040-300400-
NORTHEAST SOUTH DAKOTA

CITY           SKY/WX    TMP DP  RH WIND       PRES   REMARKS
ABERDEEN       CLOUDY    69  61  75 NE7       30.20R
WATERTOWN      CLOUDY    71  63  75 CALM      30.18F
BROOKINGS      PTCLDY    75  69  81 S5        30.16R
SISSETON         N/A     69  66  90 N5        30.17R
$$

SDZ017-020-022-023-036>040-048>070-300400-
SOUTHEAST SOUTH DAKOTA

CITY           SKY/WX    TMP DP  RH WIND       PRES   REMARKS
SIOUX FALLS    CLOUDY    75  69  81 CALM      30.20R
HURON          PTCLDY    77  68  73 SE3       30.15R
CHAMBERLAIN    MOCLDY    75  68  78 SE5       30.15R
MITCHELL       PTCLDY    73  66  78 SE7       30.15R
YANKTON        CLOUDY    72  66  83 E6        30.17R
$$

ABBREVIATIONS USED IN REMARKS
   TC - TEMPERATURE IN CELSIUS
  WCI - WIND CHILL INDEX
   HX - HEAT INDEX
  VSB - VISIBILITY





USA.gov is the U.S. government's official web portal to all federal, state and local government web resources and services.